This demonstration page uses our WeatherBlox Daily Observations layout. Learn more.

Left ArrowRight Arrow

Hourly Observations for June 11, 2021

Temp ( °F °C ) Dew Point ( °F °C ) Humidity (%) Winds ( mph kmh ) Pressure ( in mb ) Visibility ( mi km ) Precip ( " mm )
12:30 am 00:30 Partly Cloudy 72 22.2 70 21.1 94 94 SSW 5 7 29.94 1014 10 16 0.02 0.51
12:53 am 00:53 Partly Cloudy 71 21.7 70 21.1 96 96 Calm 29.93 1014 10 16 0.02 0.51
1:24 am 01:24 Mostly Cloudy 71 21.7 70 21.1 96 96 Calm 29.93 1014 10 16 0.01 0.25
1:34 am 01:34 Mostly Cloudy 71 21.7 70 21.1 96 96 Calm 29.93 1014 10 16 0.01 0.25
1:53 am 01:53 Cloudy 71 21.7 70 21.1 96 96 SW 5 7 29.93 1014 10 16 0.01 0.25
2:10 am 02:10 Cloudy 71 21.7 70 21.1 96 96 SW 6 9 29.92 1013 10 16 0.00 0.00
2:53 am 02:53 Cloudy 72 22.2 70 21.1 94 94 SSW 6 9 29.91 1013 10 16 0.00 0.00
3:53 am 03:53 Cloudy 72 22.2 70 21.1 94 94 SSW 6 9 29.90 1013 10 16 0.00 0.00
4:53 am 04:53 Cloudy 72 22.2 70 21.1 94 94 SW 3 6 29.91 1013 10 16 0.00 0.00
5:15 am 05:15 Cloudy 72 22.2 70 21.1 94 94 Calm 29.91 1013 10 16 0.00 0.00
5:53 am 05:53 Cloudy 72 22.2 70 21.1 94 94 SSW 3 6 29.91 1013 10 16 0.00 0.00
5:57 am 05:57 Cloudy 72 22.2 70 21.1 94 94 SSW 3 6 29.90 1013 10 16 0.00 0.00
6:53 am 06:53 Cloudy 72 22.2 71 21.7 97 97 Calm 29.91 1013 9 14 0.00 0.00
7:53 am 07:53 Cloudy 73 22.8 71 21.7 94 94 SW 5 7 29.92 1013 10 16 0.00 0.00
8:05 am 08:05 Cloudy 73 22.8 71 21.7 94 94 SW 5 7 29.92 1013 10 16 0.00 0.00
8:34 am 08:34 Cloudy 74 23.3 71 21.7 91 91 WSW 6 9 29.92 1013 10 16 0.00 0.00
8:44 am 08:44 Mostly Cloudy 74 23.3 71 21.7 91 91 SW 6 9 29.92 1013 10 16 0.00 0.00
8:53 am 08:53 Partly Cloudy 75 23.9 71 21.7 88 88 SW 7 11 29.92 1013 10 16 0.00 0.00
9:15 am 09:15 Mostly Cloudy 75 23.9 70 21.1 84 84 SW 7 11 29.93 1013 10 16 0.00 0.00
9:43 am 09:43 Cloudy 75 23.9 71 21.7 88 88 SW 7 11 29.93 1013 10 16 0.00 0.00
9:53 am 09:53 Cloudy 76 24.4 71 21.7 85 85 SW 6 9 29.93 1014 10 16 0.00 0.00
10:51 am 10:51 Cloudy 79 26 72 22 79 79 SSW 7 11 29.91 1013 10 16 0.00 0.00
10:53 am 10:53 Cloudy 78 25.6 72 22.2 82 82 SSW 8 13 29.92 1013 10 16 0.00 0.00
11:30 am 11:30 Cloudy 78 25.6 71 21.7 79 79 WSW 7 11 29.90 1013 10 16 0.00 0.00
11:42 am 11:42 Cloudy 78 25.6 71 21.7 79 79 SW 8 13 29.90 1013 10 16 0.00 0.00
11:53 am 11:53 Cloudy 79 26.1 71 21.7 77 77 SW 8 13 29.91 1013 10 16 0.00 0.00
12:16 pm 12:16 Mostly Cloudy 81 27.2 70 21.1 69 69 VRB 7 11 29.90 1012 10 16 0.00 0.00
12:30 pm 12:30 Mostly Cloudy 82 27.8 71 21.7 69 69 WSW 8 13 29.89 1012 10 16 0.00 0.00
12:40 pm 12:40 Partly Cloudy 82 27.8 70 21.1 67 67 W 10 17 29.88 1012 10 16 0.00 0.00
12:53 pm 12:53 Partly Cloudy 83 28.3 70 21.1 65 65 W 8 13 29.90 1012 10 16 0.00 0.00
1:50 pm 13:50 Mostly Cloudy with Rain 79 26 72 22 79 79 SSW 10 17 29.87 1012 3 5 0.00 0.00
1:53 pm 13:53 Mostly Cloudy with Rain 77 25 72 22.2 85 85 SW 8 13 29.89 1012 2 3 0.00 0.00
1:59 pm 13:59 Cloudy with Strong Thunderstorms 77 25 73 22.8 88 88 VRB 3 6 29.87 1012 3 5 0.00 0.00
2:13 pm 14:13 Mostly Cloudy with Haze 79 26.1 74 23.3 85 85 SSW 5 7 29.87 1012 3 5 0.01 0.25
2:20 pm 14:20 Partly Cloudy with Nearby Thunderstorms 80 26.7 74 23.3 82 82 VRB 3 6 29.86 1011 3 5 0.01 0.25
2:53 pm 14:53 Mostly Cloudy with Nearby Thunderstorms 82 27.8 72 22.2 72 72 VRB 5 7 29.85 1011 3 5 0.04 1.02
3:07 pm 15:07 Mostly Cloudy with Nearby Thunderstorms 80 26.7 74 23.3 82 82 SSE 7 11 29.85 1011 10 16 0.01 0.25
3:12 pm 15:12 Mostly Cloudy with Light Rain 80 26.7 74 23.3 82 82 SSE 9 15 29.84 1010 10 16 0.01 0.25
3:22 pm 15:22 Cloudy with Thunderstorms 78 25.6 74 23.3 87 87 VRB 3 6 29.84 1011 10 16 0.02 0.51
3:33 pm 15:33 Mostly Cloudy with Thunderstorms 78 25.6 73 22.8 85 85 SSW 6 9 29.84 1011 10 16 0.03 0.76
3:53 pm 15:53 Mostly Cloudy with Thunderstorms 77 25 72 22.2 85 85 undefined N/A 29.86 1011 10 16 0.04 1.02
4:36 pm 16:36 Cloudy with Nearby Thunderstorms 74 23.3 70 21.1 88 88 Calm 29.85 1011 10 16 0.03 0.76
4:48 pm 16:48 Mostly Cloudy with Light Rain 73 23 70 21 89 89 Calm 29.85 1011 10 16 0.04 1.02
4:53 pm 16:53 Mostly Cloudy 75 23.9 71 21.7 88 88 S 3 6 29.85 1011 10 16 0.05 1.27
5:53 pm 17:53 Partly Cloudy 79 26.1 73 22.8 82 82 SSW 6 9 29.84 1010 10 16 0.03 0.76
6:16 pm 18:16 Mostly Cloudy 80 26.7 74 23.3 82 82 SW 5 7 29.81 1009 10 16 0.00 0.00
6:53 pm 18:53 Mostly Cloudy 80 26.7 74 23.3 82 82 SSW 6 9 29.82 1010 10 16 0.00 0.00
7:53 pm 19:53 Mostly Sunny 79 26.1 71 21.7 77 77 W 5 7 29.83 1010 10 16 0.00 0.00
8:53 pm 20:53 Clear 78 25.6 71 21.7 79 79 WSW 7 11 29.85 1011 10 16 0.00 0.00
9:53 pm 21:53 Clear 76 24.4 70 21.1 82 82 SW 5 7 29.84 1011 10 16 0.00 0.00
10:53 pm 22:53 Clear 75 23.9 71 21.7 88 88 SSW 3 6 29.86 1011 10 16 0.00 0.00
11:53 pm 23:53 Clear 74 23.3 71 21.7 91 91 S 3 6 29.87 1012 10 16 0.00 0.00

Powered by AerisWeather